• In Romania
  • List of Countries
  • For 7 days
  • Water Temperature
  • Satellite Maps
  • Weather Map
  • Weather Widgets
  • user-avatar
    Login

    Hourly Weather Namibe

    Today, 18 October, Wednesday

    Time Temperature Precipitation Wind Pressure Humidity
    00:00 +24°C° 0 mm 1 mps 758 mmHg 80%
    01:00 +24°C° 0 mm 1 mps 758 mmHg 83%
    02:00 +23°C° 0 mm 2 mps 758 mmHg 85%
    03:00 +23°C° 0 mm 2 mps 758 mmHg 87%
    04:00 +23°C° 0 mm 2 mps 758 mmHg 89%
    05:00 +23°C° 0 mm 2 mps 758 mmHg 89%
    06:00 +22°C° 0 mm 3 mps 759 mmHg 88%
    07:00 +22°C° 0 mm 3 mps 760 mmHg 88%
    08:00 +25°C° 0 mm 4 mps 760 mmHg 80%
    09:00 +26°C° 0 mm 4 mps 760 mmHg 73%
    10:00 +28°C° 0 mm 4 mps 759 mmHg 65%
    11:00 +29°C° 0 mm 4 mps 759 mmHg 60%
    12:00 +30°C° 0 mm 5 mps 759 mmHg 55%
    13:00 +33°C° 0 mm 5 mps 758 mmHg 51%
    14:00 +32°C° 0 mm 5 mps 758 mmHg 55%
    15:00 +30°C° 0 mm 5 mps 758 mmHg 59%
    16:00 +29°C° 0 mm 4 mps 757 mmHg 63%
    17:00 +27°C° 0 mm 4 mps 758 mmHg 68%
    18:00 +26°C° 0 mm 3 mps 758 mmHg 73%
    19:00 +25°C° 0 mm 3 mps 758 mmHg 78%
    20:00 +25°C° 0 mm 3 mps 759 mmHg 79%
    21:00 +24°C° 0 mm 2 mps 759 mmHg 80%
    22:00 +24°C° 0 mm 2 mps 760 mmHg 82%
    23:00 +24°C° 0 mm 2 mps 760 mmHg 82%

    Tomorrow, 19 October, Thursday

    Time Temperature Precipitation Wind Pressure Humidity
    00:00 +24°C° 0 mm 2 mps 759 mmHg 83%
    01:00 +23°C° 0 mm 2 mps 759 mmHg 84%
    02:00 +23°C° 0 mm 2 mps 759 mmHg 85%
    03:00 +23°C° 0 mm 1 mps 759 mmHg 85%
    04:00 +23°C° 0 mm 1 mps 758 mmHg 86%
    05:00 +23°C° 0 mm 1 mps 759 mmHg 84%
    06:00 +24°C° 0 mm 1 mps 759 mmHg 83%
    07:00 +24°C° 0 mm 1 mps 759 mmHg 81%
    08:00 +26°C° 0 mm 2 mps 759 mmHg 72%
    09:00 +28°C° 0 mm 2 mps 759 mmHg 63%
    10:00 +30°C° 0 mm 2 mps 760 mmHg 54%
    11:00 +31°C° 0 mm 3 mps 759 mmHg 50%
    12:00 +33°C° 0 mm 4 mps 758 mmHg 47%
    13:00 +34°C° 0 mm 5 mps 758 mmHg 44%
    14:00 +33°C° 0 mm 5 mps 758 mmHg 48%
    15:00 +32°C° 0 mm 5 mps 757 mmHg 51%
    16:00 +30°C° 0 mm 5 mps 757 mmHg 55%
    17:00 +29°C° 0 mm 5 mps 757 mmHg 61%
    18:00 +27°C° 0 mm 5 mps 758 mmHg 67%
    19:00 +25°C° 0 mm 4 mps 759 mmHg 73%
    20:00 +25°C° 0 mm 4 mps 759 mmHg 73%
    21:00 +25°C° 0 mm 3 mps 759 mmHg 73%
    22:00 +25°C° 0 mm 2 mps 760 mmHg 73%
    23:00 +25°C° 0 mm 2 mps 759 mmHg 73%

    Day after tomorrow, 20 October, Friday

    Time Temperature Precipitation Wind Pressure Humidity
    00:00 +25°C° 0 mm 2 mps 759 mmHg 73%
    01:00 +25°C° 0 mm 2 mps 758 mmHg 72%
    02:00 +24°C° 0 mm 2 mps 758 mmHg 74%
    03:00 +24°C° 0 mm 2 mps 758 mmHg 76%
    04:00 +23°C° 0 mm 2 mps 757 mmHg 77%
    05:00 +24°C° 0 mm 2 mps 758 mmHg 78%
    06:00 +24°C° 0 mm 2 mps 759 mmHg 78%
    07:00 +24°C° 0 mm 1 mps 759 mmHg 78%
    08:00 +26°C° 0 mm 2 mps 760 mmHg 70%
    09:00 +28°C° 0 mm 3 mps 760 mmHg 62%
    10:00 +30°C° 0 mm 3 mps 760 mmHg 54%
    11:00 +32°C° 0 mm 4 mps 759 mmHg 51%
    12:00 +33°C° 0 mm 4 mps 759 mmHg 48%
    13:00 +34°C° 0 mm 5 mps 758 mmHg 45%
    14:00 +33°C° 0 mm 5 mps 758 mmHg 47%
    15:00 +32°C° 0 mm 5 mps 758 mmHg 49%
    16:00 +30°C° 0 mm 5 mps 757 mmHg 51%
    17:00 +28°C° 0 mm 4 mps 758 mmHg 58%
    18:00 +27°C° 0 mm 3 mps 759 mmHg 65%
    19:00 +25°C° 0 mm 3 mps 759 mmHg 72%
    20:00 +25°C° 0 mm 2 mps 760 mmHg 73%
    21:00 +24°C° 0 mm 2 mps 760 mmHg 74%
    22:00 +24°C° 0 mm 1 mps 760 mmHg 75%
    23:00 +24°C° 0 mm 1 mps 760 mmHg 74%

    21 October, Saturday

    Time Temperature Precipitation Wind Pressure Humidity
    00:00 +24°C° 0 mm 1 mps 759 mmHg 74%
    01:00 +24°C° 0 mm 1 mps 759 mmHg 73%
    02:00 +24°C° 0 mm 1 mps 759 mmHg 74%
    03:00 +24°C° 0 mm 2 mps 758 mmHg 75%
    04:00 +24°C° 0 mm 2 mps 758 mmHg 76%
    05:00 +24°C° 0 mm 2 mps 758 mmHg 76%
    06:00 +24°C° 0 mm 2 mps 759 mmHg 75%
    07:00 +24°C° 0 mm 1 mps 760 mmHg 75%
    08:00 +26°C° 0 mm 2 mps 760 mmHg 64%
    09:00 +29°C° 0 mm 3 mps 760 mmHg 54%
    10:00 +31°C° 0 mm 3 mps 760 mmHg 43%
    11:00 +33°C° 0 mm 4 mps 759 mmHg 42%
    12:00 +33°C° 0 mm 4 mps 758 mmHg 41%
    13:00 +34°C° 0 mm 5 mps 758 mmHg 40%
    14:00 +33°C° 0 mm 5 mps 757 mmHg 41%
    15:00 +33°C° 0 mm 5 mps 757 mmHg 43%
    16:00 +32°C° 0 mm 6 mps 756 mmHg 44%
    17:00 +29°C° 0 mm 5 mps 757 mmHg 48%
    18:00 +28°C° 0 mm 5 mps 758 mmHg 52%
    19:00 +27°C° 0 mm 4 mps 758 mmHg 56%
    20:00 +26°C° 0 mm 4 mps 759 mmHg 57%
    21:00 +26°C° 0 mm 4 mps 759 mmHg 58%
    22:00 +25°C° 0 mm 3 mps 760 mmHg 59%
    23:00 +25°C° 0 mm 3 mps 759 mmHg 60%

    22 October, Sunday

    Time Temperature Precipitation Wind Pressure Humidity
    00:00 +24°C° 0 mm 3 mps 759 mmHg 62%
    01:00 +24°C° 0 mm 3 mps 758 mmHg 63%
    02:00 +22°C° 0 mm 3 mps 758 mmHg 66%
    03:00 +22°C° 0 mm 3 mps 758 mmHg 68%
    04:00 +21°C° 0 mm 2 mps 758 mmHg 71%
    05:00 +23°C° 0 mm 2 mps 759 mmHg 70%
    06:00 +23°C° 0 mm 2 mps 759 mmHg 69%
    07:00 +24°C° 0 mm 2 mps 760 mmHg 68%
    08:00 +26°C° 0 mm 2 mps 759 mmHg 58%
    09:00 +28°C° 0 mm 3 mps 759 mmHg 48%
    10:00 +31°C° 0 mm 3 mps 759 mmHg 38%
    11:00 +33°C° 0 mm 4 mps 758 mmHg 35%
    12:00 +34°C° 0 mm 5 mps 757 mmHg 33%
    13:00 +35°C° 0 mm 5 mps 757 mmHg 30%
    14:00 +34°C° 0 mm 6 mps 756 mmHg 33%
    15:00 +33°C° 0 mm 6 mps 756 mmHg 35%
    16:00 +30°C° 0 mm 6 mps 756 mmHg 38%
    17:00 +29°C° 0 mm 5 mps 756 mmHg 45%
    18:00 +27°C° 0 mm 4 mps 757 mmHg 51%
    19:00 +25°C° 0 mm 3 mps 758 mmHg 57%
    20:00 +25°C° 0 mm 3 mps 758 mmHg 59%
    21:00 +25°C° 0 mm 2 mps 759 mmHg 60%
    22:00 +24°C° 0 mm 2 mps 759 mmHg 62%
    23:00 +24°C° 0 mm 2 mps 759 mmHg 64%

    23 October, Monday

    Time Temperature Precipitation Wind Pressure Humidity
    00:00 +24°C° 0 mm 2 mps 758 mmHg 65%
    01:00 +24°C° 0 mm 2 mps 758 mmHg 67%
    02:00 +23°C° 0 mm 1 mps 758 mmHg 69%
    03:00 +23°C° 0 mm 1 mps 757 mmHg 71%
    04:00 +23°C° 0 mm 1 mps 757 mmHg 73%
    05:00 +23°C° 0 mm 1 mps 758 mmHg 71%
    06:00 +24°C° 0 mm 1 mps 758 mmHg 68%
    07:00 +24°C° 0 mm 1 mps 758 mmHg 66%
    08:00 +27°C° 0 mm 2 mps 758 mmHg 56%
    09:00 +30°C° 0 mm 2 mps 758 mmHg 45%
    10:00 +32°C° 0 mm 2 mps 758 mmHg 35%
    11:00 +35°C° 0 mm 3 mps 757 mmHg 34%
    12:00 +36°C° 0 mm 4 mps 756 mmHg 32%
    13:00 +37°C° 0 mm 5 mps 756 mmHg 31%
    14:00 +35°C° 0 mm 5 mps 756 mmHg 35%
    15:00 +34°C° 0 mm 5 mps 755 mmHg 38%
    16:00 +32°C° 0 mm 5 mps 755 mmHg 42%
    17:00 +30°C° 0 mm 4 mps 756 mmHg 47%
    18:00 +29°C° 0 mm 3 mps 757 mmHg 52%
    19:00 +27°C° 0 mm 2 mps 758 mmHg 57%
    20:00 +27°C° 0 mm 2 mps 758 mmHg 57%
    21:00 +27°C° 0 mm 2 mps 758 mmHg 58%
    22:00 +27°C° 0 mm 1 mps 759 mmHg 59%
    23:00 +27°C° 0 mm 2 mps 758 mmHg 59%
    Show more